Location: Mahannah Oil Field
(37.4664°N, 96.6003°W)
Time: 11:46:32
(UTC+00:00)

Altair - Pass Details

Date: 25 January 2021
Orbit: 1501 x 1682 km, 47.2° (Epoch: 24 February)

Event Time Altitude Azimuth Distance (km) Brightness Sun altitude
Exits shadow 10:34:09 58° 193° (SSW) 1,884 7.7 -35.8°
Maximum altitude 10:36:09 70° 140° (SE) 1,753 7.7 -35.4°
Drops below altitude 10° 10:46:13 10° 60° (ENE) 3,947 10.3 -33.4°
Sets 10:49:24 0° 58° (ENE) 4,939 10.9 -32.8°
